2018-091A

Last updated on Nov. 19, 2018, 12:02 a.m. UTC

1 43702U 18091A   18322.51478972  .00060301  13146-4  90949-4 0  9998
2 43702  51.6426 329.7489 0009347  73.5650  52.5812 16.04749996   281

Satellite is not in orbit.